Slayton, MN

3:55 PM CDT on June 22, 2017 (GMT -0500)
Slayton

Weather History for KDVP - July, 2013

Change the Weather History Date:

Wednesday, July 24, 2013

  Actual Average (KOTG) Record (KOTG)
Temperature  
Mean Temperature 66 °F -  
Max Temperature 79 °F 78 °F 94 °F (1974)
Min Temperature 54 °F 60 °F 53 °F (1992)
Cooling Degree Days 2    
Growing Degree Days 16 (Base 50)    
Moisture  
Dew Point 54 °F    
Average Humidity 68    
Maximum Humidity 93    
Minimum Humidity 38    
Precipitation  
Precipitation 0.00 in - - ()
Sea Level Pressure  
Sea Level Pressure 30.08 in    
Wind  
Wind Speed 4 mph (WNW)    
Max Wind Speed 9 mph    
Max Gust Speed 10 mph    
Visibility 10 miles    
Events      
Averages and records for this station are not official NWS values.
T = Trace of Precipitation, MM = Missing Value Source: NWS Daily Summary

Daily Weather History Graph

Daily Weather History Graph

Search for Another Location

Airport or City:

Trip Planner

Search our weather history database for the weather conditions in past years. The results will help you decide how hot, cold, wet, or windy it might be!

Date:

Astronomy

Jul. 24, 2013 Rise Set
Actual Time 6:03 AM CDT 8:55 PM CDT
Civil Twilight 5:29 AM CDT 9:29 PM CDT
Nautical Twilight 4:46 AM CDT 10:12 PM CDT
Astronomical Twilight 3:55 AM CDT 11:02 PM CDT
Moon 9:53 PM CDT (7/24) 8:31 AM CDT (7/24)
Length of Visible Light 16h 00m
Length of Day
14h 52m
Waning Gibbous, 94% of the Moon is Illuminated
Jul 24
Waning Gibbous
Jul 29
Last Quarter
Aug 6
New
Aug 14
First Quarter
Aug 20
Full

Hourly Weather History & Observations

Time (CDT) Temp. Dew Point Humidity Pressure Visibility Wind Dir Wind Speed Gust Speed Precip Events Conditions
12:14 AM 57.9 °F 54.0 °F 87% 30.07 in 10.0 mi WNW 3.5 mph - N/A   Clear
12:33 AM 57.0 °F 53.1 °F 87% 30.07 in 10.0 mi West 3.5 mph - N/A   Clear
12:53 AM 56.8 °F 53.8 °F 89% 30.07 in 10.0 mi WNW 3.5 mph - N/A   Clear
1:13 AM 55.8 °F 53.6 °F 92% 30.07 in 10.0 mi WNW 3.5 mph - N/A   Clear
1:33 AM 55.9 °F 53.6 °F 92% 30.07 in 10.0 mi WNW 3.5 mph - N/A   Clear
1:54 AM 54.5 °F 52.2 °F 92% 30.07 in 10.0 mi WNW 3.5 mph - N/A   Scattered Clouds
2:13 AM 55.4 °F 52.7 °F 91% 30.07 in 10.0 mi WNW 3.5 mph - N/A   Clear
2:33 AM 55.6 °F 53.1 °F 91% 30.07 in 10.0 mi WNW 3.5 mph - N/A   Scattered Clouds
2:52 AM 55.4 °F 53.2 °F 92% 30.07 in 10.0 mi WNW 3.5 mph - N/A   Scattered Clouds
3:13 AM 55.6 °F 53.4 °F 92% 30.07 in 10.0 mi WNW 3.5 mph - N/A   Clear
3:33 AM 55.6 °F 53.4 °F 92% 30.08 in 10.0 mi Calm Calm - N/A   Scattered Clouds
3:53 AM 55.9 °F 54.0 °F 93% 30.08 in 10.0 mi Calm Calm - N/A   Mostly Cloudy
4:13 AM 56.7 °F 54.7 °F 93% 30.08 in 10.0 mi Calm Calm - N/A   Overcast
4:33 AM 57.2 °F 55.0 °F 92% 30.08 in 10.0 mi WNW 4.6 mph - N/A   Overcast
4:53 AM 57.7 °F 55.4 °F 92% 30.08 in 10.0 mi WNW 3.5 mph - N/A   Overcast
5:14 AM 57.2 °F 54.5 °F 91% 30.09 in 10.0 mi West 4.6 mph - N/A   Scattered Clouds
5:33 AM 56.3 °F 53.8 °F 91% 30.09 in 10.0 mi West 3.5 mph - N/A   Scattered Clouds
5:53 AM 56.1 °F 53.8 °F 92% 30.09 in 10.0 mi WNW 3.5 mph - N/A   Mostly Cloudy
6:13 AM 55.8 °F 53.8 °F 93% 30.09 in 10.0 mi WNW 3.5 mph - N/A   Overcast
6:34 AM 56.5 °F 54.1 °F 92% 30.10 in 10.0 mi WNW 5.8 mph - N/A   Overcast
6:54 AM 57.6 °F 54.9 °F 91% 30.10 in 10.0 mi WNW 4.6 mph - N/A   Overcast
7:14 AM 59.0 °F 55.6 °F 88% 30.10 in 10.0 mi West 4.6 mph - N/A   Overcast
7:33 AM 59.4 °F 56.1 °F 89% 30.11 in 10.0 mi West 5.8 mph - N/A   Overcast
7:53 AM 60.6 °F 56.3 °F 86% 30.12 in 10.0 mi WNW 5.8 mph - N/A   Overcast
8:13 AM 61.2 °F 56.3 °F 84% 30.11 in 10.0 mi Calm Calm - N/A   Overcast
8:33 AM 62.6 °F 56.8 °F 81% 30.12 in 10.0 mi West 5.8 mph - N/A   Overcast
8:53 AM 63.5 °F 57.4 °F 80% 30.12 in 10.0 mi West 5.8 mph - N/A   Mostly Cloudy
9:13 AM 66.9 °F 56.3 °F 69% 30.12 in 10.0 mi West 5.8 mph - N/A   Mostly Cloudy
9:33 AM 68.2 °F 55.6 °F 64% 30.12 in 10.0 mi WNW 6.9 mph - N/A   Mostly Cloudy
9:53 AM 69.1 °F 55.2 °F 61% 30.12 in 10.0 mi WNW 8.1 mph - N/A   Mostly Cloudy
10:14 AM 70.7 °F 53.8 °F 55% 30.11 in 10.0 mi WNW 8.1 mph - N/A   Scattered Clouds
10:34 AM 71.1 °F 53.1 °F 53% 30.11 in 10.0 mi NW 9.2 mph - N/A   Scattered Clouds
10:53 AM 72.3 °F 53.6 °F 52% 30.11 in 10.0 mi NW 8.1 mph - N/A   Scattered Clouds
11:13 AM 71.6 °F 52.5 °F 51% 30.11 in 10.0 mi NW 8.1 mph - N/A   Scattered Clouds
11:34 AM 72.9 °F 53.4 °F 50% 30.11 in 10.0 mi NNW 6.9 mph - N/A   Scattered Clouds
11:53 AM 72.1 °F 51.8 °F 49% 30.11 in 10.0 mi NW 5.8 mph - N/A   Scattered Clouds
12:14 PM 74.3 °F 52.2 °F 46% 30.11 in 10.0 mi West 9.2 mph - N/A   Scattered Clouds
12:34 PM 74.3 °F 50.9 °F 44% 30.11 in 10.0 mi WNW 3.5 mph - N/A   Scattered Clouds
12:53 PM 75.4 °F 50.2 °F 41% 30.11 in 10.0 mi NW 3.5 mph - N/A   Clear
1:13 PM 75.4 °F 51.6 °F 43% 30.10 in 10.0 mi WNW 9.2 mph - N/A   Scattered Clouds
1:34 PM 75.7 °F 48.6 °F 38% 30.10 in 10.0 mi NNW 4.6 mph - N/A   Scattered Clouds
1:54 PM 75.4 °F 50.2 °F 41% 30.10 in 10.0 mi West 6.9 mph - N/A   Scattered Clouds
2:13 PM 76.3 °F 50.9 °F 41% 30.09 in 10.0 mi WNW 5.8 mph - N/A   Scattered Clouds
2:38 PM 77.4 °F 51.3 °F 40% 30.09 in 10.0 mi NNW 3.5 mph 10.4 mph N/A   Scattered Clouds
2:53 PM 76.8 °F 51.4 °F 41% 30.09 in 10.0 mi North 3.5 mph - N/A   Scattered Clouds
3:14 PM 76.3 °F 51.1 °F 41% 30.08 in 10.0 mi WNW 8.1 mph - N/A   Scattered Clouds
3:34 PM 76.6 °F 52.7 °F 43% 30.08 in 10.0 mi West 8.1 mph - N/A   Mostly Cloudy
4:13 PM 78.1 °F 51.8 °F 40% 30.07 in 10.0 mi WNW 5.8 mph - N/A   Scattered Clouds
4:33 PM 76.5 °F 52.7 °F 43% 30.06 in 10.0 mi WNW 5.8 mph - N/A   Scattered Clouds
4:53 PM 77.5 °F 52.7 °F 42% 30.06 in 10.0 mi North 3.5 mph - N/A   Scattered Clouds
5:13 PM 78.1 °F 52.2 °F 40% 30.06 in 10.0 mi NW 3.5 mph - N/A   Mostly Cloudy
5:33 PM 79.7 °F 52.9 °F 39% 30.05 in 10.0 mi NW 5.8 mph - N/A   Mostly Cloudy
5:53 PM 77.9 °F 52.9 °F 42% 30.05 in 10.0 mi WSW 8.1 mph - N/A   Mostly Cloudy
6:14 PM 77.5 °F 52.7 °F 42% 30.04 in 10.0 mi WNW 8.1 mph - N/A   Scattered Clouds
6:33 PM 77.2 °F 52.7 °F 42% 30.04 in 10.0 mi West 6.9 mph - N/A   Clear
6:53 PM 77.2 °F 53.2 °F 43% 30.04 in 10.0 mi WNW 3.5 mph - N/A   Clear
7:13 PM 76.8 °F 53.4 °F 44% 30.04 in 10.0 mi West 4.6 mph - N/A   Clear
7:33 PM 76.5 °F 54.7 °F 47% 30.04 in 10.0 mi Calm Calm - N/A   Clear
7:53 PM 76.1 °F 54.1 °F 46% 30.05 in 10.0 mi Calm Calm - N/A   Clear
8:14 PM 75.4 °F 56.3 °F 51% 30.04 in 10.0 mi Calm Calm - N/A   Clear
8:53 PM 70.5 °F 60.1 °F 69% 30.04 in 10.0 mi SSW 5.8 mph - N/A   Clear
9:13 PM 69.1 °F 59.0 °F 70% 30.03 in 10.0 mi SSW 6.9 mph - N/A   Clear
9:34 PM 68.0 °F 59.2 °F 73% 30.04 in 10.0 mi SSW 5.8 mph - N/A   Clear
9:53 PM 66.7 °F 59.5 °F 78% 30.04 in 10.0 mi South 3.5 mph - N/A   Clear
10:14 PM 64.4 °F 59.2 °F 83% 30.05 in 10.0 mi South 3.5 mph - N/A   Clear
10:33 PM 62.4 °F 58.6 °F 87% 30.05 in 10.0 mi South 4.6 mph - N/A   Clear
10:53 PM 63.1 °F 59.0 °F 86% 30.05 in 10.0 mi SSW 4.6 mph - N/A   Clear
11:13 PM 64.4 °F 58.5 °F 81% 30.05 in 10.0 mi SSW 5.8 mph - N/A   Clear
11:33 PM 63.5 °F 58.3 °F 83% 30.05 in 10.0 mi SSW 8.1 mph - N/A   Clear
11:52 PM 63.5 °F 58.3 °F 83% 30.05 in 10.0 mi SSW 6.9 mph - N/A   Clear